Location: Le Plaix
(46.5051°N, 1.3617°E)
Time: 13:31:08
(UTC+00:00)

Daily predictions for brighter satellites

Satellite Brightness Start Highest point End
(mag) Time Altitude Azimuth Time Altitude Azimuth Time Altitude Azimuth
Cosmos 1844 4.4 20:17:55 10° NNW 20:23:27 44° NE 20:28:54 10° SE
CZ-2C R/B 4.1 20:21:35 10° N 20:26:22 77° WNW 20:31:08 10° SSW
Cosmos 1602 Rocket 3.6 20:24:40 10° S 20:29:04 82° E 20:33:33 10° N
Cosmos 2263 Rocket 3.7 20:26:51 10° NW 20:31:46 33° WSW 20:36:41 10° SSW
Nadezhda 1 Rocket 4.1 20:26:32 10° N 20:32:59 75° E 20:39:21 10° SSE
Atlas Centaur 2 3.9 20:29:57 10° SSW 20:33:48 18° S 20:38:11 10° SE
MetOp-B 4.2 20:29:04 10° SSE 20:34:22 71° ENE 20:39:44 10° N
Terra 3.5 20:32:35 10° ESE 20:36:03 20° ENE 20:39:32 10° NNE
Cosmos 2219 Rocket 3.3 20:32:41 10° SSE 20:37:01 24° ESE 20:41:22 10° NE
Cosmos 2360 Rocket 2.2 20:33:02 10° SSW 20:38:36 66° ESE 20:44:14 10° NNE
IGS 5A 3.8 20:36:01 10° SSE 20:40:03 52° ENE 20:44:07 10° N
Cosmos 2333 Rocket 3.0 20:41:47 10° SSE 20:46:41 31° ESE 20:51:38 10° NE
ATLAS 2AS CENTAUR R/B 4.4 20:43:11 10° NW 20:49:51 30° NNE 20:56:06 10° E
Cosmos 1315 Rocket 4.4 20:47:50 10° NNE 20:51:09 23° ENE 20:54:13 11° ESE
Resurs 01 Rocket 2.4 20:47:35 10° S 20:51:52 49° W 20:56:10 10° NNW
Cosmos 1818 3.5 20:48:20 10° SSW 20:53:45 80° SE 20:59:13 10° NE
CZ-2C R/B 4.1 20:49:21 10° N 20:54:24 40° WNW 20:59:19 10° SW
Cosmos-2242 3.1 20:50:33 10° N 20:54:53 66° E 20:59:06 11° SSE
Cosmos 773 Rocket 4.4 20:51:44 10° S 20:56:45 46° ESE 21:01:47 10° NNE
SL-16 R/B 3.5 20:52:13 10° SW 20:57:38 44° NW 21:03:04 10° NNE
Cosmos 2221 4.3 20:56:28 10° NNE 20:59:34 19° ENE 21:02:29 11° ESE
ERS-1 Rocket 3.3 20:56:51 12° SE 21:01:22 52° ENE 21:06:16 10° N
GEOS 3 Rocket 3.7 20:59:08 10° NE 21:04:32 69° SE 21:09:54 10° SSW
USA 215 3.4 21:01:43 10° ENE 21:08:04 49° SE 21:14:21 10° SSW
Cosmos 2278 Rocket 3.5 21:03:18 10° N 21:08:14 29° NE 21:13:08 10° ESE
ATLAS 5 CENTAUR R/B 1.5 21:06:19 10° SW 21:10:27 86° NW 21:15:07 10° NE
Meteor 1-11 4.4 21:06:02 10° S 21:11:31 57° E 21:17:05 10° NNE
USA 245 3.4 21:08:35 11° S 21:11:36 64° W 21:15:41 10° NNW
Cosmos 1844 Rocket 2.9 21:07:48 10° NNW 21:13:21 70° WSW 21:18:16 13° SSE
Cosmos 1400 Rocket 2.9 21:10:14 10° NNW 21:14:13 76° W 21:17:41 13° S
Cosmos 1758 Rocket 3.9 21:10:07 10° SSW 21:14:36 69° W 21:19:06 10° N
SPOT 5 3.1 21:13:56 15° SSE 21:18:03 63° ENE 21:22:49 10° N
Lacrosse 5 rocket 4.1 21:15:53 10° WNW 21:19:06 20° N 21:22:10 10° NE
Spot 2 Rocket 4.0 21:16:55 10° S 21:21:55 58° W 21:26:59 10° NNW
USA 81 4.1 21:19:52 13° S 21:24:31 63° E 21:29:45 10° NNE
Landsat 7 4.4 21:21:48 10° S 21:26:27 55° W 21:31:08 10° NNW
BREEZE M DEB (TANK) 1.7 21:24:26 10° WNW 21:26:58 54° SSW 21:27:39 32° SE
Cosmos 2181 Rocket 4.0 21:22:46 10° N 21:29:10 77° E 21:34:15 16° SSE
Cosmos 2074 Rocket 4.4 21:29:16 17° SSE 21:33:42 44° E 21:39:33 10° NNE
SPOT 1/Viking Rocket 4.0 21:31:52 12° S 21:36:32 56° W 21:41:38 10° NNW
Cosmos 1953 Rocket 3.7 21:33:24 10° SSW 21:37:42 72° W 21:42:02 10° N
USA 267 3.6 21:34:18 10° ESE 21:40:45 63° NNE 21:47:14 10° NW
SAR-Lupe-2 4.4 21:40:35 10° N 21:44:04 51° WNW 21:47:33 10° SSW
Cosmos 2084 3.5 21:40:59 10° NW 21:45:28 79° NE 21:48:05 24° SE
Cosmos 1842 Rocket 3.7 21:42:22 10° N 21:46:42 61° E 21:49:02 26° SSE
MTI 4.1 21:49:31 10° NNE 21:52:30 43° E 21:53:10 37° SE
Cosmos 923 Rocket 4.5 21:52:20 23° SSE 21:55:06 42° ESE 22:00:04 10° NE
ATLAS CENTAUR R/B 1.0 21:53:16 10° NW 21:56:58 78° SW 21:58:26 34° SSE
Cosmos 1825 4.1 21:58:09 16° E 21:58:39 16° E 22:01:02 10° NE
Cosmos 1980 4.2 21:56:55 23° SSE 21:59:50 41° ESE 22:05:05 10° NE
COSMOS 2428 2.8 21:58:59 10° SSW 22:04:39 83° WNW 22:10:23 10° NNE
Cosmos 1869 3.2 22:03:40 10° N 22:07:40 84° E 22:09:22 33° SSE
NOSS 0 Rocket 3.9 22:07:31 18° S 22:12:05 62° ESE 22:18:11 10° NE
Terra 2.3 22:10:34 23° S 22:13:25 55° W 22:18:07 10° NNW
NOSS 3-4 (A) 4.1 22:07:08 10° NW 22:14:00 62° NE 22:19:46 18° ESE
NOSS 3-4 (C) 4.2 22:07:15 10° NW 22:14:06 62° NE 22:19:55 18° ESE
Cosmos 2237 Rocket 2.4 22:14:58 26° S 22:18:03 53° ESE 22:23:36 10° NE
Genesis I 3.9 22:18:36 33° ESE 22:18:37 33° ESE 22:22:09 10° NE
BREEZE-M DEB 4.4 22:16:08 10° WNW 22:20:18 76° SSW 22:37:29 10° ESE
Cosmos 2344 3.9 22:16:02 22° S 22:20:31 44° ESE 22:27:49 10° NE
Cosmos 2219 Rocket 2.8 22:15:03 10° SW 22:20:32 57° WNW 22:26:05 10° NNE
BREEZE-M R/B 4.4 22:11:33 10° WNW 22:21:11 47° SW 22:23:36 29° S
Atlas Centaur 2 4.0 22:17:41 10° SW 22:21:21 18° SSW 22:21:21 18° SSW
Elektron 1 4.3 22:21:21 43° S 22:22:04 53° SE 22:26:46 10° NE
Cosmos 2360 Rocket 4.5 22:18:31 10° WSW 22:23:07 25° NW 22:27:45 10° N
NOSS 3-3 (A) 4.2 22:17:22 10° SW 22:23:14 71° NW 22:29:56 10° NE
NOSS 3-3 (C) 4.2 22:17:27 10° SW 22:23:20 72° NW 22:30:03 10° NE
Cosmos 1315 Rocket 4.2 22:24:06 10° NNW 22:27:46 32° W 22:29:55 19° SW
DELTA 2 R/B (1) 4.1 22:23:13 10° SW 22:28:13 34° SSE 22:30:03 28° SE
Cosmos 2333 Rocket 3.2 22:25:17 10° SW 22:30:44 47° NW 22:36:17 10° NNE
Thor Agena Rocket 3.7 22:26:16 10° NNE 22:31:17 55° E 22:33:18 34° SSE
Cosmos 2184 Rocket 4.1 22:27:10 19° SSW 22:31:47 73° W 22:38:07 10° N
Meteor 2-2 Rocket 4.5 22:26:59 10° NNW 22:32:45 66° W 22:35:55 27° S
Cosmos 2221 3.2 22:33:12 10° NNW 22:37:25 46° W 22:39:20 27° SSW
BREEZE-M DEB (TANK) 2.1 22:36:09 10° WNW 22:40:25 59° N 22:41:22 33° ENE
Iridium 2 3.7 22:37:47 10° N 22:41:36 71° E 22:42:26 51° SSE
Cosmos 1371 Rocket 4.1 22:36:39 10° NNW 22:41:55 68° ENE 22:44:15 33° SE
ATLAS 2AS CENTAUR R/B 2.9 22:34:24 10° NW 22:42:03 79° NE 22:46:25 26° SE
Cosmos 1892 3.0 22:41:59 36° SW 22:43:20 61° W 22:47:07 10° N
EO 1 Del DPAF 3.2 22:40:37 10° NNE 22:44:22 62° ESE 22:44:59 52° SSE
Cosmos 1766 Rocket 4.5 22:44:24 30° ESE 22:45:16 32° E 22:49:11 10° NNE
MOS 1-B Rocket 4.4 22:38:35 10° NNE 22:46:18 69° ESE 22:49:56 29° S
Okean 3 Rocket 4.2 22:47:03 35° ESE 22:48:01 40° E 22:52:10 10° NNE
Aureole 2 Rocket 3.4 22:46:23 10° N 22:48:56 29° ENE 22:48:59 29° ENE
Cosmos 2112 Rocket 4.0 22:48:24 31° SSW 22:51:04 83° ESE 22:56:28 10° NNE
USA 215 3.7 22:44:43 10° NE 22:51:12 64° NNW 22:57:39 10° WSW
Cosmos 1606 3.6 22:47:54 10° N 22:51:32 36° ENE 22:52:19 33° ESE
Cosmos 2278 Rocket 2.6 22:47:05 10° NW 22:52:37 53° WSW 22:54:59 32° S
Cosmos 2297 4.3 22:48:28 10° NNW 22:54:05 51° ENE 22:57:11 25° ESE
Cosmos 158 Rocket 3.8 22:52:56 31° SSW 22:55:16 85° WNW 23:00:13 10° NNE
ATLAS 5 CENTAUR R/B 4.5 22:52:37 10° WNW 22:55:53 20° NNW 22:59:27 10° NNE
Lacrosse 5 rocket 3.8 22:56:15 10° NW 22:59:25 21° NNE 23:02:27 10° ENE
Cosmos 1943 Rocket 3.6 22:55:30 10° NNW 23:00:32 31° NE 23:04:40 14° ESE
Spot 4 3.8 22:59:07 41° S 23:00:47 75° WSW 23:05:35 10° NNW
SL-16 R/B 2.6 23:00:46 35° SSE 23:02:24 45° ESE 23:07:47 10° NE
TIMED 4.4 23:01:49 49° S 23:02:55 74° ESE 23:07:17 10° NNE
Cosmos 2058 3.9 23:01:10 24° SW 23:03:08 40° WNW 23:07:03 10° N
Cosmos 1408 3.0 23:03:24 44° SW 23:04:10 54° WNW 23:07:41 10° N
Cosmos 2056 Rocket 3.5 23:00:26 10° NNW 23:05:53 89° WSW 23:07:58 39° SSE
Nadezhda 3 Rocket 4.4 23:04:28 10° NNW 23:10:40 55° W 23:13:54 28° SSW
Cosmos 2154 Rocket 4.4 23:07:50 23° SSW 23:11:43 57° WNW 23:17:51 10° N
Cosmos 2341 Rocket 3.9 23:11:46 34° S 23:14:44 88° E 23:20:59 10° N
Cosmos 1680 Rocket 4.2 23:15:58 20° SW 23:19:32 51° WNW 23:24:45 10° NNE
Meteor 2-3 Rocket 4.1 23:21:02 36° SE 23:22:55 50° E 23:28:24 10° NNE
USA 267 3.5 23:21:24 34° S 23:23:54 49° SW 23:30:15 10° WNW
Cosmos 2151 3.2 23:23:52 43° SW 23:25:05 62° WNW 23:29:20 10° N
IRIDIUM 104 4.3 23:23:26 43° SSE 23:25:09 73° E 23:30:23 10° N
Helios 1A 3.6 23:24:53 38° ESE 23:25:57 48° ENE 23:29:59 10° N
Cosmos 405 4.5 23:25:34 10° NNE 23:28:37 26° ENE 23:29:08 25° E
Cosmos 1452 Rocket 3.8 23:27:41 10° NNW 23:32:55 59° ENE 23:35:06 33° SE
CZ-4C R/B 4.0 23:26:43 10° NNW 23:33:14 41° NE 23:40:44 10° ESE
SL-8 Rocket 3.9 23:30:59 36° S 23:33:41 88° W 23:39:52 10° N
BREEZE-M DEB (TANK) 4.4 23:31:30 10° W 23:32:45 13° WSW 23:32:45 13° WSW
Cosmos 1825 3.2 23:32:56 33° WSW 23:33:50 38° WNW 23:37:25 10° N
IRIDIUM 114 4.2 23:32:35 44° S 23:34:19 87° E 23:39:34 10° N
Cosmos 1340 2.6 23:34:23 63° ESE 23:34:33 65° E 23:38:18 10° NNE
COSMOS 2455 3.3 23:28:36 10° NNW 23:34:35 57° NE 23:38:24 22° ESE
ALOS 2 2.7 23:35:27 49° SSW 23:36:22 62° W 23:40:44 10° NNW
Cosmos 1408 Rocket 3.6 23:35:56 54° SSE 23:36:44 66° E 23:41:07 10° NNE
Cosmos 1933 3.2 23:33:38 10° N 23:37:41 87° W 23:38:13 66° S
Cosmos 1151 Rocket 2.9 23:34:53 10° NNW 23:39:15 79° W 23:40:03 57° SSW
Meteor 2-12 Rocket 4.4 23:37:27 38° S 23:39:59 86° E 23:46:10 10° N
IRIDIUM 103 4.3 23:41:42 43° SSW 23:43:27 79° W 23:48:42 10° N
Cosmos 44 3.0 23:43:37 46° SW 23:44:51 81° NW 23:49:19 10° NE
APEX 3.5 23:42:14 10° NNW 23:44:22 44° NNE 23:44:22 44° NNE
Cosmos 2369 Rocket 3.0 23:39:53 10° NNW 23:45:15 44° NE 23:48:49 20° ESE
Cosmos 1727 Rocket 4.1 23:39:05 10° N 23:45:20 72° E 23:48:04 36° SSE
Cosmos 1500 Rocket 4.3 23:44:49 37° ESE 23:45:36 41° E 23:49:44 10° NNE
SL-4 R/B 3.6 23:48:59 16° NNW 23:48:59 16° NNW 23:49:33 10° NNW
GP-B 3.4 23:43:22 10° N 23:47:45 58° W 23:48:50 44° SW
Cosmos 371 Rocket 3.2 23:44:19 10° NNW 23:49:12 79° WSW 23:50:25 51° S
Dummy Sat-01 4.5 23:51:07 10° N 23:54:55 87° W 23:55:12 76° SSW
Helios 1B rocket 3.5 23:51:15 10° NNE 23:54:56 30° E 23:55:23 29° ESE
CREW DRAGON DEMO-1 DEB 3.6 23:54:49 47° NW 23:55:10 50° NNW 23:58:10 10° ENE
